New Bern, NC

5:15 AM EDT on August 24, 2017 (GMT -0400)
Craven County Regional

Weather History for KEWN - April, 2013

Change the Weather History Date:

Monday, April 1, 2013

  Actual Average Record
Temperature  
Mean Temperature 61 °F 58 °F  
Max Temperature 72 °F 70 °F 90 °F (1974)
Min Temperature 50 °F 46 °F 30 °F (1950)
Degree Days  
Heating Degree Days 4 8  
Month to date heating degree days 4 8  
Since 1 July heating degree days 2412 2523  
Cooling Degree Days 0 1  
Month to date cooling degree days 0 1  
Year to date cooling degree days 8 15  
Growing Degree Days 12 (Base 50)    
Moisture  
Dew Point 54 °F    
Average Humidity 68    
Maximum Humidity 96    
Minimum Humidity 40    
Precipitation  
Precipitation T in 0.12 in 2.16 in (1973)
Month to date precipitation T 0.12  
Year to date precipitation 7.31 12.19  
Snow  
Snow 0.00 in - - ()
Month to date snowfall 0.0  
Since 1 July snowfall T  
Snow Depth 0.00 in    
Sea Level Pressure  
Sea Level Pressure 29.87 in    
Wind  
Wind Speed 5 mph (WSW)    
Max Wind Speed 14 mph    
Max Gust Speed 17 mph    
Visibility 9 miles    
Events Rain    
T = Trace of Precipitation, MM = Missing Value Source: NWS Daily Summary

Daily Weather History Graph

Daily Weather History Graph

Search for Another Location

Airport or City:

Trip Planner

Search our weather history database for the weather conditions in past years. The results will help you decide how hot, cold, wet, or windy it might be!

Date:

Astronomy

Apr. 01, 2013 Rise Set
Actual Time 6:54 AM EDT 7:29 PM EDT
Civil Twilight 6:29 AM EDT 7:55 PM EDT
Nautical Twilight 5:59 AM EDT 8:25 PM EDT
Astronomical Twilight 5:28 AM EDT 8:56 PM EDT
Moon 12:25 AM EDT (4/1) 10:49 AM EDT (4/1)
Length of Visible Light 13h 26m
Length of Day
12h 35m
Waning Gibbous, 67% of the Moon is Illuminated
Apr 1
Waning Gibbous
Apr 3
Last Quarter
Apr 10
New
Apr 18
First Quarter
Apr 25
Full

Hourly Weather History & Observations

Time (EDT) Temp. Dew Point Humidity Pressure Visibility Wind Dir Wind Speed Gust Speed Precip Events Conditions
12:54 AM 60.1 °F 55.9 °F 86% 29.88 in 10.0 mi WSW 6.9 mph - 0.00 in   Overcast
2:54 AM 57.0 °F 55.0 °F 93% 29.88 in 7.0 mi South 3.5 mph - N/A   Mostly Cloudy
3:54 AM 55.0 °F 54.0 °F 96% 29.85 in 1.8 mi Calm Calm - N/A   Clear
4:05 AM 55.4 °F 53.6 °F 94% 29.85 in 0.8 mi Calm Calm - N/A   Clear
4:15 AM 55.4 °F 53.6 °F 94% 29.84 in 2.0 mi SSW 3.5 mph - N/A   Clear
4:23 AM 55.4 °F 53.6 °F 94% 29.84 in 6.0 mi SSW 4.6 mph - N/A   Scattered Clouds
4:54 AM 57.9 °F 55.0 °F 90% 29.85 in 10.0 mi SSW 5.8 mph - N/A   Overcast
5:54 AM 60.1 °F 57.0 °F 90% 29.85 in 10.0 mi WSW 5.8 mph - 0.00 in   Mostly Cloudy
6:42 AM 60.8 °F 57.2 °F 88% 29.86 in 10.0 mi West 6.9 mph - 0.00 in Rain Light Rain
6:49 AM 60.8 °F 57.2 °F 88% 29.86 in 10.0 mi WNW 5.8 mph - 0.00 in Rain Light Rain
6:54 AM 61.0 °F 57.0 °F 87% 29.86 in 10.0 mi West 5.8 mph - 0.00 in Rain Light Rain
7:23 AM 60.8 °F 57.2 °F 88% 29.87 in 10.0 mi SW 4.6 mph - 0.00 in   Overcast
7:52 AM 62.6 °F 57.2 °F 82% 29.86 in 10.0 mi West 4.6 mph - 0.00 in   Partly Cloudy
8:34 AM 62.6 °F 59.0 °F 88% 29.87 in 10.0 mi SW 5.8 mph - N/A   Mostly Cloudy
8:54 AM 63.0 °F 59.0 °F 87% 29.87 in 10.0 mi SSW 5.8 mph - N/A   Overcast
9:34 AM 64.4 °F 59.0 °F 83% 29.88 in 10.0 mi SW 8.1 mph - N/A   Scattered Clouds
9:54 AM 64.9 °F 59.0 °F 81% 29.88 in 10.0 mi WSW 11.5 mph 16.1 mph N/A   Mostly Cloudy
10:10 AM 64.4 °F 57.2 °F 77% 29.88 in 10.0 mi WSW 6.9 mph 16.1 mph N/A   Overcast
10:39 AM 59.0 °F 53.6 °F 82% 29.90 in 10.0 mi NNW 13.8 mph - 0.00 in   Overcast
10:54 AM 59.0 °F 55.0 °F 87% 29.90 in 10.0 mi NW 8.1 mph - 0.00 in Rain Light Rain
11:01 AM 59.0 °F 55.4 °F 88% 29.90 in 10.0 mi NW 6.9 mph - 0.00 in Rain Light Rain
12:05 PM 62.6 °F 55.4 °F 77% 29.89 in 10.0 mi Variable 3.5 mph - N/A   Overcast
12:15 PM 62.6 °F 55.4 °F 77% 29.89 in 10.0 mi Calm Calm - N/A   Mostly Cloudy
12:54 PM 64.0 °F 55.0 °F 73% 29.88 in 10.0 mi North 6.9 mph - N/A   Mostly Cloudy
1:54 PM 64.9 °F 52.0 °F 63% 29.86 in 10.0 mi Calm Calm - N/A   Overcast
3:54 PM 71.1 °F 50.0 °F 47% 29.83 in 10.0 mi WSW 5.8 mph - N/A   Clear
4:54 PM 72.0 °F 48.9 °F 44% 29.83 in 10.0 mi WNW 8.1 mph - N/A   Scattered Clouds
5:54 PM 71.1 °F 48.0 °F 44% 29.83 in 10.0 mi West 9.2 mph - N/A   Clear
6:54 PM 69.1 °F 45.0 °F 42% 29.84 in 10.0 mi West 9.2 mph - N/A   Clear
7:54 PM 63.0 °F 46.0 °F 54% 29.85 in 10.0 mi SSW 4.6 mph - N/A   Clear
8:54 PM 57.0 °F 46.0 °F 67% 29.86 in 10.0 mi South 3.5 mph - N/A   Clear
9:54 PM 55.0 °F 48.9 °F 80% 29.88 in 10.0 mi Calm Calm - N/A   Clear
10:54 PM 51.1 °F 50.0 °F 96% 29.92 in 10.0 mi Variable 4.6 mph - N/A   Clear
11:54 PM 52.0 °F 48.9 °F 89% 29.93 in 4.0 mi Calm Calm - N/A   Scattered Clouds
11:56 PM 51.8 °F 50.0 °F 94% 29.93 in 1.5 mi Calm Calm - N/A   Mostly Cloudy